This is the latest recevied weather packets stored in our database for station/object N9XRG. If no packets are shown the sender has not sent any weather packets the latest 10 day(s).
| Time | Temp. | Humidity | Pressure | Rain* | Wind** | Luminosity | Snow |
|---|---|---|---|---|---|---|---|
| 1778126048 | 5° C | 87% | 1014.6 hPa | 0 mm | - | 0 W/m² | - |
| 1778125745 | 5° C | 87% | 1014.3 hPa | 0 mm | - | 0 W/m² | - |
| 1778125441 | 5° C | 88% | 1014.5 hPa | 0 mm | - | 0 W/m² | - |
| 1778125139 | 5° C | 88% | 1014.4 hPa | 0 mm | - | 0 W/m² | - |
| 1778124837 | 5.56° C | 87% | 1014.4 hPa | 0 mm | - | 0 W/m² | - |
| 1778124534 | 5.56° C | 86% | 1014.3 hPa | 0 mm | - | 0 W/m² | - |
| 1778124231 | 5.56° C | 85% | 1014.4 hPa | 0 mm | - | 0 W/m² | - |
| 1778123927 | 5.56° C | 85% | 1014.4 hPa | 0 mm | - | 0 W/m² | - |
| 1778123624 | 6.11° C | 82% | 1014.2 hPa | 0 mm | - | 0 W/m² | - |
| 1778123320 | 6.11° C | 82% | 1014.3 hPa | 0 mm | - | 0 W/m² | - |
| 1778123018 | 6.67° C | 83% | 1014.1 hPa | 0 mm | - | 0 W/m² | - |
| 1778122714 | 6.67° C | 81% | 1014.2 hPa | 0 mm | - | 0 W/m² | - |
| 1778122412 | 7.22° C | 80% | 1014.3 hPa | 0 mm | - | 0 W/m² | - |
| 1778122110 | 7.22° C | 77% | 1014.3 hPa | 0 mm | - | 0 W/m² | - |
| 1778121807 | 7.78° C | 75% | 1014.1 hPa | 0 mm | - | 0 W/m² | - |
| 1778121503 | 7.78° C | 74% | 1014.2 hPa | 0 mm | - | 0 W/m² | - |
| 1778121199 | 8.33° C | 71% | 1014.1 hPa | 0 mm | - | 0 W/m² | - |
| 1778120897 | 8.33° C | 69% | 1014.3 hPa | 0 mm | - | 0 W/m² | - |
| 1778120593 | 8.33° C | 70% | 1014.2 hPa | 0 mm | - | 0 W/m² | - |
| 1778120289 | 8.89° C | 67% | 1014.1 hPa | 0 mm | - | 0 W/m² | - |
| 1778119985 | 8.89° C | 68% | 1014.2 hPa | 0 mm | - | 0 W/m² | - |
| 1778119683 | 9.44° C | 66% | 1014 hPa | 0 mm | - | 0 W/m² | - |
| 1778119379 | 9.44° C | 66% | 1014.2 hPa | 0 mm | - | 0 W/m² | - |
| 1778119077 | 9.44° C | 74% | 1014.2 hPa | 0 mm | - | 0 W/m² | - |
| 1778118774 | 9.44° C | 70% | 1014.1 hPa | 0 mm | - | 0 W/m² | - |
* Rain latest hour (hover to see other rain measurements)
** Current wind speed in m/s (hover to see current wind gust speed)